Jefferson, NC

5:07 AM EST on November 13, 2019 (GMT -0500)
Ashe County

Weather History for KGEV - July, 2019

Change the Weather History Date:

Monday, July 29, 2019

  Actual Average Record
Temperature  
Mean Temperature 70 °F -  
Max Temperature 76 °F 79 °F 89 °F (1993)
Min Temperature 62 °F 59 °F 49 °F (1983)
Cooling Degree Days 4    
Growing Degree Days 20 (Base 50)    
Moisture  
Dew Point 63 °F    
Average Humidity 75    
Maximum Humidity 98    
Minimum Humidity 57    
Precipitation  
Precipitation 0.00 in - - ()
Sea Level Pressure  
Sea Level Pressure 30.20 in    
Wind  
Wind Speed 1 mph ()    
Max Wind Speed 7 mph    
Max Gust Speed -    
Visibility 9.9 miles    
Events Rain , Thunderstorm    
Averages and records for this station are not official NWS values.
T = Trace of Precipitation, MM = Missing Value Source: Averaged Metar Reports

Daily Weather History Graph

Daily Weather History Graph

Search for Another Location

Airport or City:

Astronomy

Jul. 29, 2019 Rise Set
Actual Time 6:29 AM EDT 8:34 PM EDT
Civil Twilight 6:00 AM EDT 9:02 PM EDT
Nautical Twilight 5:25 AM EDT 9:37 PM EDT
Astronomical Twilight 4:48 AM EDT 10:15 PM EDT
Moon 3:41 AM EDT (7/29) 6:34 PM EDT (7/29)
Length of Visible Light 15h 02m
Length of Day
14h 04m
Waning Crescent, 8% of the Moon is Illuminated
Jul 29
Waning Crescent
Jul 31
New
Aug 7
First Quarter
Aug 15
Full
Aug 23
Last Quarter

Hourly Weather History & Observations

Time (EDT) Temp. Dew Point Humidity Pressure Visibility Wind Dir Wind Speed Gust Speed Precip Events Conditions
8:15 AM 63.5 °F 60.3 °F 89% 30.24 in 10.0 mi Calm Calm - N/A   Clear
8:35 AM 65.1 °F 62.2 °F 90% 30.24 in 10.0 mi Calm Calm - N/A   Clear
8:55 AM 66.6 °F 62.6 °F 87% 30.24 in 10.0 mi Calm Calm - N/A   Clear
9:15 AM 68.2 °F 64.2 °F 87% 30.24 in 10.0 mi Calm Calm - N/A   Clear
9:35 AM 70.0 °F 63.9 °F 81% 30.24 in 10.0 mi Calm Calm - N/A   Clear
9:55 AM 71.1 °F 64.2 °F 79% 30.24 in 10.0 mi Calm Calm - N/A   Clear
10:15 AM 72.3 °F 63.7 °F 74% 30.24 in 10.0 mi Calm Calm - N/A   Clear
10:35 AM 73.6 °F 62.8 °F 69% 30.24 in 10.0 mi Calm Calm - N/A   Clear
10:55 AM 75.2 °F 64.6 °F 69% 30.24 in 10.0 mi Calm Calm - N/A   Clear
11:15 AM 75.7 °F 63.0 °F 64% 30.24 in 10.0 mi Calm Calm - N/A   Mostly Cloudy
11:35 AM 75.4 °F 61.3 °F 62% 30.24 in 10.0 mi South 3.5 mph - N/A   Scattered Clouds
11:55 AM 75.6 °F 61.3 °F 61% 30.24 in 10.0 mi Calm Calm - N/A   Clear
12:15 PM 76.6 °F 61.5 °F 59% 30.23 in 10.0 mi Calm Calm - N/A   Scattered Clouds
12:35 PM 76.6 °F 60.4 °F 57% 30.23 in 10.0 mi Calm Calm - N/A   Scattered Clouds
12:55 PM 75.4 °F 59.9 °F 58% 30.22 in 10.0 mi Calm Calm - N/A   Mostly Cloudy
1:15 PM 75.0 °F 60.4 °F 60% 30.22 in 10.0 mi Calm Calm - N/A   Overcast
1:35 PM 73.4 °F 63.1 °F 70% 30.22 in 10.0 mi Calm Calm - N/A Rain Rain
1:55 PM 72.7 °F 61.9 °F 69% 30.21 in 10.0 mi NW 6.9 mph - N/A   Overcast
2:15 PM 68.0 °F 63.3 °F 85% 30.21 in 10.0 mi NW 6.9 mph - N/A Rain Light Rain
2:35 PM 70.0 °F 60.6 °F 72% 30.21 in 10.0 mi West 4.6 mph - N/A   Overcast
2:55 PM 69.4 °F 61.7 °F 76% 30.21 in 10.0 mi Calm Calm - N/A   Overcast
3:15 PM 70.2 °F 61.2 °F 73% 30.20 in 10.0 mi Calm Calm - N/A   Overcast
3:35 PM 70.3 °F 65.8 °F 86% 30.20 in 10.0 mi WNW 3.5 mph - N/A Thunderstorm Overcast
3:55 PM 72.7 °F 63.9 °F 74% 30.19 in 10.0 mi Calm Calm - N/A   Overcast
4:35 PM 74.1 °F 65.1 °F 73% 30.19 in 10.0 mi WNW 3.5 mph - N/A   Overcast
4:55 PM 75.0 °F 62.1 °F 64% 30.19 in 10.0 mi West 5.8 mph - N/A   Overcast
5:15 PM 74.8 °F 61.7 °F 64% 30.19 in 10.0 mi West 4.6 mph - N/A   Overcast
5:35 PM 74.3 °F 61.5 °F 64% 30.18 in 10.0 mi West 4.6 mph - N/A   Overcast
5:55 PM 73.9 °F 59.9 °F 61% 30.18 in 10.0 mi West 3.5 mph - N/A   Overcast
6:15 PM 73.4 °F 63.5 °F 71% 30.18 in 10.0 mi West 3.5 mph - N/A   Overcast
6:35 PM 72.5 °F 64.4 °F 76% 30.17 in 10.0 mi Calm Calm - N/A   Mostly Cloudy
6:55 PM 72.0 °F 63.7 °F 75% 30.17 in 10.0 mi Calm Calm - N/A   Scattered Clouds
7:15 PM 71.6 °F 61.9 °F 71% 30.17 in 10.0 mi Calm Calm - N/A   Clear
7:35 PM 72.0 °F 62.4 °F 72% 30.17 in 10.0 mi Calm Calm - N/A   Mostly Cloudy
7:55 PM 72.0 °F 61.3 °F 69% 30.17 in 10.0 mi Calm Calm - N/A   Mostly Cloudy
8:15 PM 71.1 °F 63.1 °F 76% 30.17 in 10.0 mi Calm Calm - N/A   Mostly Cloudy
8:35 PM 69.8 °F 63.5 °F 80% 30.17 in 10.0 mi Calm Calm - N/A   Scattered Clouds
8:55 PM 69.8 °F 63.7 °F 81% 30.17 in 10.0 mi Calm Calm - N/A   Clear
9:15 PM 70.7 °F 63.3 °F 77% 30.17 in 10.0 mi Calm Calm - N/A   Clear
9:35 PM 67.6 °F 63.9 °F 88% 30.17 in 10.0 mi Calm Calm - N/A   Clear
9:55 PM 68.4 °F 63.7 °F 85% 30.18 in 10.0 mi Calm Calm - N/A   Clear
10:15 PM 70.0 °F 61.9 °F 75% 30.18 in 10.0 mi Calm Calm - N/A   Clear
10:35 PM 66.6 °F 62.2 °F 86% 30.19 in 10.0 mi Calm Calm - N/A   Clear
10:55 PM 64.8 °F 63.0 °F 94% 30.19 in 10.0 mi Calm Calm - N/A   Clear
11:15 PM 65.8 °F 62.1 °F 88% 30.19 in 10.0 mi Calm Calm - N/A   Clear
11:35 PM 65.8 °F 64.0 °F 94% 30.19 in 10.0 mi Calm Calm - N/A   Clear
11:55 PM 62.8 °F 62.2 °F 98% 30.19 in 5.0 mi Calm Calm - N/A   Scattered Clouds